Omaha Offutt, NE

9:25 AM CDT on June 26, 2017 (GMT -0500)
Offutt Air Force Base

Weather History for KOFF - December, 2012

Change the Weather History Date:

Saturday, December 15, 2012

  Actual Average Record
Temperature  
Mean Temperature 42 °F -  
Max Temperature 48 °F 35 °F 62 °F (2002)
Min Temperature 35 °F 18 °F -4 °F (2008)
Degree Days  
Heating Degree Days 23    
Moisture  
Dew Point 42 °F    
Average Humidity 95    
Maximum Humidity 100    
Minimum Humidity 81    
Precipitation  
Precipitation 0.53 in - - ()
Sea Level Pressure  
Sea Level Pressure 29.53 in    
Wind  
Wind Speed 12 mph (South)    
Max Wind Speed 18 mph    
Max Gust Speed 23 mph    
Visibility 8 miles    
Events Rain    
Averages and records for this station are not official NWS values.
T = Trace of Precipitation, MM = Missing Value Source: NWS Daily Summary

Daily Weather History Graph

Daily Weather History Graph

Search for Another Location

Airport or City:

Trip Planner

Search our weather history database for the weather conditions in past years. The results will help you decide how hot, cold, wet, or windy it might be!

Date:

Astronomy

Dec. 15, 2012 Rise Set
Actual Time 7:42 AM CST 4:55 PM CST
Civil Twilight 7:11 AM CST 5:27 PM CST
Nautical Twilight 6:36 AM CST 6:01 PM CST
Astronomical Twilight 6:02 AM CST 6:35 PM CST
Moon 9:34 AM CST (12/15) 8:02 PM CST (12/15)
Length of Visible Light 10h 16m
Length of Day
9h 13m
Waxing Crescent, 8% of the Moon is Illuminated
Dec 15
Waxing Crescent
Dec 19
First Quarter
Dec 28
Full
Jan 4
Last Quarter
Jan 11
New

Hourly Weather History & Observations

Time (CST) Temp. Windchill Dew Point Humidity Pressure Visibility Wind Dir Wind Speed Gust Speed Precip Events Conditions
12:17 AM 44.6 °F 36.9 °F 42.8 °F 93% 29.61 in 7.0 mi SE 18.4 mph - N/A Rain Rain
12:39 AM 42.8 °F 35.4 °F 42.8 °F 100% 29.58 in 4.0 mi SE 15.0 mph - N/A Rain Rain
12:42 AM 42.8 °F 35.4 °F 42.8 °F 100% 29.58 in 4.0 mi ESE 15.0 mph - N/A Rain Heavy Rain
12:49 AM 42.8 °F 36.2 °F 42.8 °F 100% 29.57 in 4.0 mi ESE 12.7 mph - N/A Rain Heavy Rain
12:55 AM 43.2 °F 35.9 °F 43.0 °F 99% 29.57 in 5.0 mi ESE 15.0 mph - 0.20 in Rain Rain
1:05 AM 42.8 °F 35.1 °F 42.8 °F 100% 29.56 in 6.0 mi ESE 16.1 mph - N/A Rain Rain
1:15 AM 42.8 °F 35.8 °F 42.8 °F 100% 29.55 in 4.0 mi ESE 13.8 mph - N/A Rain Rain
1:25 AM 42.8 °F 34.8 °F 42.8 °F 100% 29.54 in 4.0 mi ESE 17.3 mph - N/A Rain Heavy Rain
1:34 AM 42.8 °F 35.4 °F 42.8 °F 100% 29.53 in 4.0 mi ESE 15.0 mph - N/A Rain Rain
1:40 AM 42.8 °F 35.8 °F 42.8 °F 100% 29.53 in 4.0 mi ESE 13.8 mph - N/A Rain Rain
1:52 AM 42.8 °F 35.8 °F 42.8 °F 100% 29.52 in 6.0 mi ESE 13.8 mph - N/A Rain Rain
1:55 AM 42.6 °F 35.6 °F 42.4 °F 99% 29.52 in 5.0 mi ESE 13.8 mph - 0.16 in Rain Rain
2:55 AM 43.2 °F 35.6 °F 43.0 °F 99% 29.50 in 9.0 mi ESE 16.1 mph - 0.11 in Rain Light Rain
2:59 AM 42.8 °F 35.1 °F 42.8 °F 100% 29.50 in 10.0 mi ESE 16.1 mph - N/A Rain Light Rain
3:02 AM 42.8 °F 35.1 °F 42.8 °F 100% 29.49 in 10.0 mi SE 16.1 mph - N/A   Overcast
3:35 AM 44.6 °F 38.1 °F 42.8 °F 93% 29.47 in 7.0 mi SE 13.8 mph - N/A   Overcast
3:55 AM 44.8 °F 37.7 °F 44.6 °F 99% 29.46 in 5.0 mi SE 16.1 mph 23.0 mph 0.01 in Rain Light Rain
3:57 AM 44.6 °F 37.8 °F 44.6 °F 100% 29.46 in 4.0 mi SE 15.0 mph - N/A   Overcast
4:00 AM 44.6 °F 37.4 °F 44.6 °F 100% 29.46 in 4.0 mi SE 16.1 mph - N/A   Overcast
4:16 AM 44.6 °F 38.8 °F 44.6 °F 100% 29.45 in 4.0 mi SE 11.5 mph - N/A   Overcast
4:36 AM 44.6 °F 39.7 °F 44.6 °F 100% 29.44 in 4.0 mi SE 9.2 mph - N/A   Overcast
4:50 AM 44.6 °F 40.2 °F 44.6 °F 100% 29.44 in 8.0 mi SE 8.1 mph - N/A   Overcast
4:55 AM 44.8 °F 40.4 °F 44.4 °F 99% 29.44 in 7.0 mi SE 8.1 mph - 0.00 in   Overcast
5:05 AM 44.6 °F 40.2 °F 44.6 °F 100% 29.44 in 5.0 mi SE 8.1 mph - N/A   Overcast
5:09 AM 44.6 °F 40.2 °F 44.6 °F 100% 29.44 in 4.0 mi SE 8.1 mph - N/A Rain Light Rain
5:12 AM 44.6 °F 39.7 °F 44.6 °F 100% 29.44 in 3.0 mi SE 9.2 mph - N/A Rain Light Rain
5:38 AM 44.6 °F 40.2 °F 44.6 °F 100% 29.44 in 3.0 mi SE 8.1 mph - N/A Rain Light Rain
5:55 AM 44.8 °F 41.6 °F 44.4 °F 99% 29.44 in 4.0 mi SE 5.8 mph - 0.03 in Rain Light Rain
5:59 AM 44.6 °F 40.7 °F 44.6 °F 100% 29.44 in 4.0 mi SE 6.9 mph - N/A Rain Light Rain
6:01 AM 44.6 °F 40.2 °F 44.6 °F 100% 29.44 in 4.0 mi SE 8.1 mph - N/A   Overcast
6:02 AM 44.6 °F 40.2 °F 44.6 °F 100% 29.44 in 4.0 mi SE 8.1 mph - N/A Rain Light Rain
6:11 AM 44.6 °F 39.2 °F 44.6 °F 100% 29.44 in 5.0 mi SE 10.4 mph - N/A Rain Light Rain
6:19 AM 44.6 °F 39.7 °F 44.6 °F 100% 29.44 in 7.0 mi SSE 9.2 mph - N/A Rain Light Rain
6:25 AM 44.6 °F 39.7 °F 44.6 °F 100% 29.44 in 8.0 mi SE 9.2 mph - N/A   Overcast
6:29 AM 44.6 °F 40.2 °F 44.6 °F 100% 29.44 in 8.0 mi SE 8.1 mph - N/A   Overcast
6:55 AM 45.0 °F 40.6 °F 44.8 °F 99% 29.45 in 9.0 mi SE 8.1 mph - 0.01 in   Overcast
7:52 AM 44.6 °F 41.4 °F 44.6 °F 100% 29.45 in 7.0 mi SSE 5.8 mph - N/A   Overcast
7:55 AM 44.8 °F 42.4 °F 44.6 °F 99% 29.45 in 7.0 mi SE 4.6 mph - N/A   Overcast
8:03 AM 44.6 °F 42.2 °F 44.6 °F 100% 29.45 in 6.0 mi SSE 4.6 mph - N/A   Mostly Cloudy
8:12 AM 44.6 °F 42.2 °F 44.6 °F 100% 29.45 in 6.0 mi SE 4.6 mph - N/A   Overcast
8:15 AM 44.6 °F 41.4 °F 44.6 °F 100% 29.45 in 5.0 mi SE 5.8 mph - N/A   Overcast
8:20 AM 44.6 °F 42.2 °F 44.6 °F 100% 29.45 in 3.0 mi SE 4.6 mph - N/A   Light Drizzle
8:26 AM 44.6 °F 41.4 °F 44.6 °F 100% 29.45 in 3.0 mi SE 5.8 mph - N/A   Light Drizzle
8:38 AM 44.6 °F - 44.6 °F 100% 29.45 in 5.0 mi Calm Calm - N/A   Light Drizzle
8:41 AM 44.6 °F - 44.6 °F 100% 29.46 in 6.0 mi Calm Calm - N/A   Overcast
8:54 AM 44.6 °F 42.2 °F 44.6 °F 100% 29.47 in 8.0 mi SSW 4.6 mph - N/A   Overcast
8:55 AM 45.0 °F 42.6 °F 44.6 °F 99% 29.47 in 8.0 mi SSW 4.6 mph - 0.01 in   Overcast
9:00 AM 44.6 °F 42.2 °F 44.6 °F 100% 29.47 in 10.0 mi SSW 4.6 mph - N/A   Overcast
9:06 AM 44.6 °F 43.1 °F 44.6 °F 100% 29.47 in 10.0 mi SSW 3.5 mph - N/A   Overcast
9:18 AM 44.6 °F 43.1 °F 44.6 °F 100% 29.47 in 10.0 mi WSW 3.5 mph - N/A   Overcast
9:26 AM 46.4 °F 45.2 °F 44.6 °F 93% 29.48 in 9.0 mi SW 3.5 mph - N/A   Overcast
9:46 AM 46.4 °F 44.3 °F 46.4 °F 100% 29.49 in 10.0 mi West 4.6 mph - N/A   Overcast
9:52 AM 46.4 °F 42.9 °F 46.4 °F 100% 29.49 in 10.0 mi West 6.9 mph - N/A   Overcast
9:55 AM 46.2 °F 42.7 °F 46.0 °F 99% 29.49 in 10.0 mi West 6.9 mph - N/A   Overcast
9:56 AM 46.4 °F 42.9 °F 46.4 °F 100% 29.49 in 10.0 mi West 6.9 mph - N/A   Overcast
10:03 AM 46.4 °F 42.4 °F 46.4 °F 100% 29.49 in 10.0 mi West 8.1 mph - N/A   Overcast
10:36 AM 48.2 °F - 48.2 °F 100% 29.50 in 10.0 mi West 12.7 mph - N/A   Mostly Cloudy
10:51 AM 48.2 °F - 46.4 °F 93% 29.52 in 10.0 mi West 11.5 mph - N/A   Mostly Cloudy
10:55 AM 48.0 °F - 46.4 °F 94% 29.52 in 10.0 mi West 10.4 mph - N/A   Mostly Cloudy
11:55 AM 47.1 °F - 45.0 °F 92% 29.52 in 10.0 mi West 16.1 mph 21.9 mph N/A   Overcast
12:55 PM 47.5 °F - 43.7 °F 87% 29.53 in 10.0 mi WNW 12.7 mph - N/A   Overcast
1:21 PM 46.4 °F 39.8 °F 42.8 °F 87% 29.53 in 10.0 mi WNW 16.1 mph - N/A   Overcast
1:29 PM 46.4 °F 40.1 °F 42.8 °F 87% 29.53 in 10.0 mi West 15.0 mph - N/A   Overcast
1:42 PM 46.4 °F 39.8 °F 42.8 °F 87% 29.53 in 10.0 mi WNW 16.1 mph - N/A   Overcast
1:55 PM 45.1 °F 38.8 °F 42.6 °F 91% 29.53 in 10.0 mi WNW 13.8 mph - N/A   Overcast
1:57 PM 44.6 °F 37.8 °F 42.8 °F 93% 29.53 in 10.0 mi WNW 15.0 mph - N/A   Overcast
2:13 PM 44.6 °F 37.4 °F 41.0 °F 87% 29.54 in 10.0 mi WNW 16.1 mph - N/A   Overcast
2:22 PM 44.6 °F 37.4 °F 41.0 °F 87% 29.55 in 10.0 mi WNW 16.1 mph - N/A   Overcast
2:55 PM 43.5 °F 38.3 °F 40.1 °F 88% 29.57 in 10.0 mi WNW 9.2 mph - N/A   Overcast
3:55 PM 41.7 °F 34.8 °F 37.8 °F 86% 29.62 in 10.0 mi WNW 12.7 mph - N/A   Overcast
4:55 PM 41.2 °F 33.7 °F 37.4 °F 86% 29.66 in 10.0 mi West 13.8 mph 23.0 mph N/A   Overcast
5:55 PM 40.5 °F 32.8 °F 36.3 °F 85% 29.68 in 10.0 mi WNW 13.8 mph - N/A   Overcast
6:55 PM 39.4 °F 30.4 °F 35.6 °F 86% 29.68 in 10.0 mi WNW 17.3 mph - N/A   Mostly Cloudy
7:22 PM 39.2 °F 31.2 °F 35.6 °F 87% 29.68 in 10.0 mi NW 13.8 mph - N/A   Mostly Cloudy
7:27 PM 39.2 °F 30.5 °F 33.8 °F 81% 29.68 in 10.0 mi WNW 16.1 mph - N/A   Mostly Cloudy
7:55 PM 38.3 °F 29.3 °F 33.6 °F 83% 29.70 in 10.0 mi WNW 16.1 mph - N/A   Overcast
8:39 PM 37.4 °F 28.9 °F 32.0 °F 81% 29.70 in 10.0 mi NW 13.8 mph - N/A   Overcast
8:49 PM 37.4 °F 30.3 °F 32.0 °F 81% 29.71 in 10.0 mi WNW 10.4 mph - N/A   Overcast
8:55 PM 36.9 °F 29.6 °F 32.4 °F 84% 29.71 in 10.0 mi WNW 10.4 mph - N/A   Overcast
9:37 PM 37.4 °F 30.3 °F 32.0 °F 81% 29.71 in 10.0 mi WNW 10.4 mph - N/A   Scattered Clouds
9:38 PM 37.4 °F 30.3 °F 32.0 °F 81% 29.71 in 10.0 mi WNW 10.4 mph - N/A   Mostly Cloudy
9:55 PM 36.9 °F 30.1 °F 32.4 °F 84% 29.71 in 10.0 mi WNW 9.2 mph - N/A   Mostly Cloudy
10:36 PM 37.4 °F 32.1 °F 32.0 °F 81% 29.72 in 10.0 mi NW 6.9 mph - N/A   Overcast
10:55 PM 36.7 °F 29.9 °F 32.4 °F 84% 29.73 in 10.0 mi WNW 9.2 mph - N/A   Overcast
11:55 PM 35.6 °F 28.0 °F 31.8 °F 86% 29.73 in 10.0 mi NW 10.4 mph - N/A   Overcast